[[{"header":{"parameterUnit":"m.s-1","parameterCategory":1,"la1":30.2991,"la2":30.254,"lo1":-89.0895,"lo2":-89.0444,"dy":0.0017,"dx":0.0017,"nx":28,"ny":28,"refTime":"2025-07-04T09:00:00:Z","depth":0,"parameterNumber":2,"parameterNumberName":"U-component_of_WINDS"},"data":[0,0,0,0,0,0,0,0,0,0,0,0,0,0,0,0,0,0,0,0,0,0,0,0,0,0,0,0,0,0,0,0,0,0,0,0,0,0,0,0,0,0,0,0,0,0,0,0,0,0,0,0,0,0,0,0,0,0,-2.1746,-2.1745,0,-2.1678,-2.1677,-2.1677,-2.154,-2.1538,-2.1535,-2.1532,-2.1466,-2.1467,-2.1467,0,0,0,0,0,0,0,0,0,0,0,0,0,-2.176,-2.176,-2.1746,-2.1745,-2.1745,-2.1678,-2.1677,-2.1677,-2.1541,-2.1538,-2.1534,-2.1531,-2.1466,-2.1466,-2.1467,0,0,0,0,0,0,0,0,0,0,0,0,0,-2.1729,-2.176,-2.1746,-2.1669,-2.1661,-2.1679,-2.1677,-2.1676,-2.1542,-2.1538,-2.1533,-2.153,-2.1465,-2.1466,-2.1467,-2.1556,0,0,-2.1471,-2.1471,0,0,0,0,0,0,0,0,-2.1731,-2.1729,-2.1681,-2.1674,-2.1666,-2.1614,-2.1658,-2.1636,-2.1543,-2.1587,-2.1532,-2.1528,-2.1518,-2.1515,-2.1511,-2.1553,-2.155,-2.1471,-2.1472,-2.1472,-2.1473,0,0,0,0,0,0,0,-2.1733,-2.1731,-2.1719,-2.1681,-2.1671,-2.1638,-2.1629,-2.1653,-2.1577,-2.1583,-2.1573,-2.1567,-2.1513,-2.1511,-2.1509,-2.1549,-2.1471,-2.1472,-2.1473,-2.1473,-2.1658,-2.1662,0,0,0,0,0,0,-2.1747,-2.1734,-2.1721,-2.1717,-2.1689,-2.1641,-2.1631,-2.1634,-2.1576,-2.1563,-2.157,-2.156,-2.1511,-2.1508,-2.1506,-2.1605,-2.1472,-2.1473,-2.1474,-2.1654,-2.1659,-2.1664,0,0,0,0,0,0,-2.1747,-2.1747,-2.1724,-2.1723,-2.1717,-2.1645,-2.165,-2.1635,-2.1632,-2.1566,-2.1552,-2.1581,-2.1507,-2.1504,-2.1544,-2.1601,-2.1474,-2.1475,-2.1649,-2.1655,-2.1661,-2.1805,0,0,0,0,0,0,-2.1748,-2.1748,-2.1781,-2.1724,-2.1718,-2.1764,-2.1653,-2.1637,-2.1634,-2.1621,-2.1573,-2.1561,-2.1504,-2.1543,-2.1545,-2.16,-2.1476,-2.1643,-2.1652,-2.1659,-2.1795,-2.1815,-2.1833,0,0,0,0,0,-2.1749,-2.1825,-2.1783,-2.1782,-2.1757,-2.1767,-2.1764,-2.1696,-2.1639,-2.1672,-2.1629,-2.1562,-2.1594,-2.1548,-2.1549,-2.1606,-2.164,-2.1649,-2.1659,-2.1786,-2.1811,-2.1832,0,0,0,0,0,0,-2.1891,-2.1816,-2.1769,-2.1828,-2.1805,-2.1744,-2.1783,-2.1725,-2.1718,-2.1706,-2.1622,-2.1613,-2.1664,-2.1638,-2.1589,-2.1687,-2.1606,-2.1616,-2.1702,-2.1726,-2.1744,-2.175,-2.1477,0,0,0,0,0,-2.1929,-2.1943,-2.1876,-2.1935,-2.1926,-2.1857,-2.1859,-2.1808,-2.1781,-2.1771,-2.1731,-2.1708,-2.1712,-2.1717,-2.1718,-2.1789,-2.1777,-2.1828,-2.1848,-2.1864,-2.1874,-2.1909,-2.1931,-2.1695,-2.1695,-2.1695,0,0,-2.2008,-2.1968,-2.1983,-2.1962,-2.1938,-2.1955,-2.185,-2.1872,-2.1883,-2.1774,-2.1809,-2.1779,-2.1748,-2.1804,-2.1827,-2.1784,-2.1936,-2.1876,-2.1889,-2.189,-2.1921,-2.1944,-2.1964,-2.1701,-2.17,-2.1699,0,0,-2.216,-2.2132,-2.2177,-2.2155,-2.2119,-2.2072,-2.2083,-2.2031,-2.2007,-2.204,-2.1958,-2.197,-2.198,-2.1961,-2.1953,-2.2095,-2.2034,-2.2098,-2.2198,-2.2234,-2.2252,-2.2268,-2.232,-2.2339,-2.2108,-2.2108,-2.2109,0,-2.2263,-2.2284,-2.2208,-2.2235,-2.2229,-2.2129,-2.2174,-2.2157,-2.2124,-2.2122,-2.2074,-2.2083,-2.2055,-2.2105,-2.214,-2.2136,-2.2146,-2.2104,-2.2256,-2.2271,-2.2285,-2.2333,-2.2352,-2.2116,-2.2116,-2.2115,-2.2114,0,-2.2413,-2.2429,-2.2469,-2.2439,-2.2437,-2.2473,-2.2403,-2.241,-2.2359,-2.2317,-2.2352,-2.2314,-2.2305,-2.2313,-2.2264,-2.2355,-2.233,-2.2271,-2.2187,-2.2317,-2.236,-2.2378,-2.2128,-2.2125,-2.2123,-2.2121,0,0,-2.2655,-2.258,-2.2596,-2.2581,-2.2533,-2.2544,-2.2575,-2.2565,-2.2573,-2.2553,-2.2577,-2.2586,-2.253,-2.2521,-2.2469,-2.25,-2.2615,-2.2436,-2.2433,-2.2471,-2.2713,-2.2759,-2.2782,-2.2573,-2.2576,-2.2579,-2.2716,0,-2.2797,-2.2846,-2.2778,-2.2842,-2.2856,-2.276,-2.2787,-2.2761,-2.2723,-2.2729,-2.2686,-2.2694,-2.2619,-2.2613,-2.2639,-2.2596,-2.2663,-2.2585,-2.2596,-2.2597,-2.2608,-2.2805,-2.2853,-2.2985,-2.2733,-2.2736,-2.2738,0,-2.2971,-2.2958,-2.3024,-2.297,-2.2973,-2.2999,-2.2983,-2.299,-2.2958,-2.2928,-2.2917,-2.2854,-2.2881,-2.2799,-2.2835,-2.2783,-2.2783,-2.2763,-2.2766,-2.2766,-2.2676,-2.281,-2.3025,-2.3046,-2.2764,-2.2762,-2.276,0,-2.3141,-2.314,-2.3179,-2.3168,-2.3108,-2.3128,-2.3104,-2.3067,-2.3065,-2.3051,-2.3049,-2.3039,-2.3034,-2.3028,-2.2964,-2.291,-2.3008,-2.2921,-2.2984,-2.2986,-2.301,-2.301,-2.3229,-2.3009,-2.3009,-2.3009,-2.3008,0,-2.3308,-2.3353,-2.3255,-2.3279,-2.3325,-2.3245,-2.3293,-2.3259,-2.3228,-2.3244,-2.316,-2.3177,-2.3091,-2.3098,-2.3048,-2.3085,-2.3084,-2.306,-2.3047,-2.3068,-2.3072,-2.3068,-2.3058,-2.3014,-2.3013,-2.3012,-2.3011,0,-2.3508,-2.3444,-2.348,-2.3418,-2.3404,-2.3441,-2.3388,-2.3408,-2.3363,-2.3384,-2.3384,-2.3314,-2.3319,-2.3253,-2.3245,-2.3211,-2.3272,-2.3241,-2.3283,-2.3273,-2.334,-2.3335,-2.3566,-2.3592,-2.3355,-2.3358,-2.336,0,-2.3619,-2.3651,-2.3592,-2.3596,-2.3575,-2.3583,-2.358,-2.3502,-2.3502,-2.3467,-2.3491,-2.3488,-2.3482,-2.3493,-2.3442,-2.3435,-2.3404,-2.3485,-2.3403,-2.3423,-2.3406,-2.3405,-2.3408,-2.3504,-2.3507,-2.3509,-2.3511,0,-2.3824,-2.379,-2.3788,-2.3775,-2.3773,-2.3759,-2.374,-2.3748,-2.3663,-2.3667,-2.367,-2.3665,-2.3655,-2.3654,-2.3636,-2.3611,-2.3548,-2.3537,-2.3551,-2.3574,-2.3597,-2.3586,-2.3331,-2.3533,-2.353,-2.3529,-2.3528,-2.3527,-2.3983,-2.4006,-2.3968,-2.3968,-2.3945,-2.3928,-2.3943,-2.39,-2.39,-2.3886,-2.3839,-2.385,-2.3816,-2.3786,-2.3766,-2.3773,-2.3733,-2.3754,-2.376,-2.3766,-2.3779,-2.3595,-2.377,-2.3769,-2.3769,-2.3768,-2.3767,0,-2.4183,-2.4153,-2.4154,-2.4129,-2.4129,-2.4067,-2.4042,-2.4047,-2.4057,-2.403,-2.4024,-2.4027,-2.4024,-2.3972,-2.3963,-2.3979,-2.3949,-2.3979,-2.3978,-2.3973,-2.3815,-2.3804,-2.4003,-2.4003,-2.4003,-2.4003,-2.4003,-2.4003,-2.4288,-2.4323,-2.4285,-2.4308,-2.4277,-2.4286,-2.4277,-2.4262,-2.4239,-2.4246,-2.4243,-2.4208,-2.417,-2.4158,-2.4152,-2.4137,-2.4138,-2.4178,-2.4153,-2.4007,-2.3984,-2.3962,-2.3951,-2.4178,-2.4179,-2.431,-2.4311,-2.4312]},{"header":{"parameterUnit":"m.s-1","parameterCategory":1,"la1":30.2991,"la2":30.254,"lo1":-89.0895,"lo2":-89.0444,"dy":0.0017,"dx":0.0017,"nx":28,"ny":28,"refTime":"2025-07-04T09:00:00:Z","depth":0,"parameterNumber":3,"parameterNumberName":"V-component_of_WINDS"},"data":[0,0,0,0,0,0,0,0,0,0,0,0,0,0,0,0,0,0,0,0,0,0,0,0,0,0,0,0,0,0,0,0,0,0,0,0,0,0,0,0,0,0,0,0,0,0,0,0,0,0,0,0,0,0,0,0,0,0,-3.3936,-3.3937,0,-3.4016,-3.4017,-3.4017,-3.3968,-3.3966,-3.3963,-3.3961,-3.404,-3.4044,-3.4048,0,0,0,0,0,0,0,0,0,0,0,0,0,-3.374,-3.3744,-3.3936,-3.3937,-3.3938,-3.4015,-3.4017,-3.4018,-3.3968,-3.3966,-3.3963,-3.396,-3.4039,-3.4044,-3.4049,0,0,0,0,0,0,0,0,0,0,0,0,0,-3.3823,-3.3746,-3.3936,-3.3923,-3.3923,-3.4015,-3.4017,-3.4018,-3.3969,-3.3965,-3.3962,-3.3959,-3.4037,-3.4043,-3.405,-3.4159,0,0,-3.4069,-3.4072,0,0,0,0,0,0,0,0,-3.3818,-3.383,-3.3924,-3.3924,-3.3924,-3.3978,-3.3976,-3.4065,-3.397,-3.3951,-3.3961,-3.3957,-3.4022,-3.403,-3.4052,-3.4162,-3.4166,-3.407,-3.4074,-3.4076,-3.4078,0,0,0,0,0,0,0,-3.3813,-3.3827,-3.3968,-3.3925,-3.3925,-3.3913,-3.3921,-3.3993,-3.4005,-3.3953,-3.3949,-3.3959,-3.4021,-3.4046,-3.4054,-3.4167,-3.4069,-3.4075,-3.4079,-3.4082,-3.437,-3.4374,0,0,0,0,0,0,-3.3808,-3.3822,-3.3965,-3.397,-3.3862,-3.3919,-3.3928,-3.3964,-3.4004,-3.4007,-3.3962,-3.3957,-3.4037,-3.4046,-3.4056,-3.4186,-3.4076,-3.4082,-3.4086,-3.4366,-3.4371,-3.4375,0,0,0,0,0,0,-3.3804,-3.3822,-3.3962,-3.3895,-3.3912,-3.3926,-3.3968,-3.3968,-3.3992,-3.4012,-3.4013,-3.3985,-3.4034,-3.4047,-3.4134,-3.4188,-3.4085,-3.4091,-3.4362,-3.4368,-3.4373,-3.4447,0,0,0,0,0,0,-3.3799,-3.3821,-3.3863,-3.3897,-3.3916,-3.4039,-3.3971,-3.3972,-3.4004,-3.3997,-3.4034,-3.4036,-3.4033,-3.4124,-3.414,-3.4195,-3.4096,-3.4357,-3.4364,-3.4371,-3.4439,-3.4454,-3.4467,0,0,0,0,0,-3.3792,-3.388,-3.3865,-3.3883,-3.3969,-3.4042,-3.4053,-3.4048,-3.4008,-3.405,-3.4063,-3.4035,-3.418,-3.4134,-3.4151,-3.4208,-3.4353,-3.4362,-3.437,-3.4433,-3.4451,-3.4466,0,0,0,0,0,0,-3.3851,-3.3884,-3.3868,-3.397,-3.4004,-3.4034,-3.4087,-3.4067,-3.4112,-3.4104,-3.4095,-3.4104,-3.4194,-3.421,-3.4158,-3.4316,-3.426,-3.4273,-3.4302,-3.4319,-3.4333,-3.4326,-3.4101,0,0,0,0,0,-3.3876,-3.3934,-3.3959,-3.4046,-3.4064,-3.4073,-3.4104,-3.4097,-3.4132,-3.4146,-3.4164,-3.4198,-3.4251,-3.4286,-3.4336,-3.4442,-3.4448,-3.449,-3.4503,-3.4515,-3.4525,-3.4581,-3.46,-3.4403,-3.4403,-3.4403,0,0,-3.3928,-3.3953,-3.399,-3.4059,-3.4084,-3.4143,-3.4085,-3.415,-3.4193,-3.4155,-3.4238,-3.4253,-3.429,-3.4387,-3.443,-3.4403,-3.4581,-3.4526,-3.4534,-3.4539,-3.4592,-3.461,-3.4627,-3.4409,-3.4408,-3.4407,0,0,-3.4052,-3.4078,-3.4153,-3.418,-3.4219,-3.4224,-3.4243,-3.4276,-3.4285,-3.4368,-3.434,-3.4391,-3.4483,-3.4511,-3.4536,-3.4672,-3.4647,-3.4688,-3.4759,-3.4814,-3.483,-3.4843,-3.489,-3.4907,-3.4699,-3.4699,-3.4699,0,-3.4112,-3.42,-3.4194,-3.4261,-3.4291,-3.4261,-3.4336,-3.4362,-3.4416,-3.4437,-3.4406,-3.452,-3.4543,-3.4645,-3.4678,-3.4701,-3.472,-3.4683,-3.4828,-3.4842,-3.4854,-3.4899,-3.4917,-3.4704,-3.4703,-3.4703,-3.4702,0,-3.427,-3.4332,-3.4387,-3.4441,-3.4478,-3.4549,-3.4552,-3.459,-3.458,-3.4589,-3.4673,-3.47,-3.4754,-3.4778,-3.4769,-3.4879,-3.486,-3.4829,-3.4773,-3.4878,-3.4919,-3.4937,-3.471,-3.4708,-3.4707,-3.4706,0,0,-3.4433,-3.4482,-3.4503,-3.4526,-3.4568,-3.4615,-3.4684,-3.4738,-3.477,-3.4809,-3.4866,-3.4944,-3.4915,-3.4945,-3.4938,-3.4987,-3.5091,-3.4949,-3.495,-3.4974,-3.5212,-3.5235,-3.5255,-3.5076,-3.5079,-3.5081,-3.5209,0,-3.4559,-3.468,-3.4677,-3.4789,-3.4846,-3.4818,-3.4878,-3.491,-3.4919,-3.4968,-3.4978,-3.5033,-3.4992,-3.5009,-3.5056,-3.5068,-3.5138,-3.5059,-3.5127,-3.513,-3.5118,-3.5277,-3.5301,-3.5419,-3.5225,-3.5228,-3.523,0,-3.4721,-3.4766,-3.4884,-3.4917,-3.4941,-3.4995,-3.5044,-3.5091,-3.5126,-3.513,-3.5163,-3.5149,-3.5218,-3.5161,-3.5256,-3.5202,-3.523,-3.524,-3.5245,-3.5249,-3.5185,-3.5285,-3.5457,-3.5475,-3.5256,-3.5254,-3.5252,0,-3.4827,-3.4916,-3.4998,-3.5019,-3.5061,-3.5099,-3.5118,-3.515,-3.5182,-3.5225,-3.5246,-3.5296,-3.5323,-3.5362,-3.5361,-3.532,-3.5456,-3.5399,-3.546,-3.546,-3.5489,-3.5487,-3.5667,-3.5509,-3.5509,-3.5509,-3.5508,0,-3.4967,-3.504,-3.5046,-3.5096,-3.5177,-3.5173,-3.5253,-3.5268,-3.5297,-3.5349,-3.5328,-3.5377,-3.5374,-3.5423,-3.5423,-3.5501,-3.5514,-3.5518,-3.5517,-3.5519,-3.5518,-3.5536,-3.5527,-3.5513,-3.5512,-3.5512,-3.5511,0,-3.5097,-3.5104,-3.5192,-3.5224,-3.5234,-3.5292,-3.5319,-3.5367,-3.5375,-3.5441,-3.5456,-3.5469,-3.5526,-3.553,-3.5596,-3.5596,-3.569,-3.568,-3.5678,-3.5676,-3.5736,-3.573,-3.5932,-3.5958,-3.5785,-3.5787,-3.5788,0,-3.5185,-3.5241,-3.5279,-3.5313,-3.5334,-3.5389,-3.5423,-3.542,-3.5456,-3.55,-3.5542,-3.5598,-3.5642,-3.5735,-3.5749,-3.5799,-3.579,-3.5857,-3.5797,-3.5797,-3.5789,-3.5785,-3.579,-3.5869,-3.5871,-3.5872,-3.5873,0,-3.534,-3.5341,-3.539,-3.5441,-3.5482,-3.5522,-3.5558,-3.5587,-3.5589,-3.563,-3.5689,-3.5723,-3.5791,-3.5846,-3.5895,-3.5913,-3.5894,-3.5893,-3.5909,-3.5911,-3.5907,-3.5909,-3.5709,-3.5887,-3.5886,-3.5885,-3.5884,-3.5884,-3.5451,-3.5499,-3.5534,-3.5589,-3.5617,-3.5652,-3.5698,-3.5713,-3.5762,-3.5817,-3.5813,-3.5878,-3.5911,-3.5975,-3.5998,-3.6048,-3.6024,-3.6049,-3.6054,-3.606,-3.6066,-3.5901,-3.6057,-3.6056,-3.6056,-3.6056,-3.6055,0,-3.5604,-3.5625,-3.5676,-3.5729,-3.5772,-3.5752,-3.5791,-3.5829,-3.5887,-3.592,-3.5964,-3.6031,-3.6085,-3.6104,-3.6155,-3.6192,-3.6184,-3.6205,-3.6202,-3.6206,-3.6084,-3.6064,-3.6211,-3.6211,-3.6211,-3.6211,-3.6211,-3.6211,-3.5688,-3.5768,-3.5773,-3.5867,-3.5887,-3.5951,-3.5976,-3.6008,-3.6034,-3.611,-3.6155,-3.6168,-3.6195,-3.6249,-3.6296,-3.63,-3.632,-3.6345,-3.6345,-3.623,-3.6215,-3.62,-3.6181,-3.6349,-3.6349,-3.6462,-3.6463,-3.6464]}]]